Wind_Speed
54 53 52 52 51 50 49 47 46 45 43 42 41 38 36 35 33 33 34 35 34 33 33 32 32 31 30 29 29 27 26 25 25 25 25 26 26 26 25 24 24 23 22 22 22 22 21 20 20 20 19 19 19 20 20 19 18 18 17 16 15 15 15 15 16 15 13 11 10 9 10 11 11 11 11 11 12 13 13 13 14 15 15 16 16
55 54 53 52 52 50 49 48 47 46 45 44 43 40 38 36 34 33 34 36 36 35 34 33 33 32 31 30 30 29 28 27 26 26 26 27 27 27 27 26 25 25 24 24 24 23 22 22 21 21 21 21 20 21 21 20 20 19 18 18 17 16 15 15 15 15 14 12 11 10 11 11 10 10 10 11 11 10 11 12 13 14 15 16 17
55 54 54 54 53 51 50 49 48 48 47 46 45 42 40 37 35 35 34 35 36 36 36 35 34 34 33 32 31 30 30 29 28 28 28 28 28 28 28 28 27 26 25 24 24 24 24 23 22 22 23 23 22 22 22 22 21 20 19 18 17 15 14 14 14 15 15 13 12 11 11 11 10 10 10 10 10 10 10 11 12 13 14 15 16
55 54 55 54 53 52 52 51 50 49 48 47 46 44 41 39 37 36 35 35 37 37 37 36 36 36 36 35 34 33 32 31 30 30 30 30 29 29 29 29 28 27 26 25 24 25 25 25 24 23 24 24 23 23 23 23 23 22 20 19 17 15 14 15 15 15 15 15 13 11 11 11 10 9 9 10 10 11 12 12 13 13 13 14 15
54 55 55 54 54 53 53 52 51 51 50 49 47 45 42 40 39 38 37 36 37 37 38 38 38 38 38 37 36 35 34 33 32 32 31 31 31 30 30 30 29 28 27 26 25 25 26 26 25 24 25 25 24 24 24 24 24 24 23 21 18 17 16 16 15 15 16 16 14 13 12 11 10 9 10 11 12 13 13 14 14 15 15 14 14
54 55 55 54 54 54 53 53 52 51 50 49 47 45 43 42 41 40 38 37 37 38 39 40 40 40 39 38 37 37 36 35 34 33 32 32 32 31 31 30 30 29 28 27 26 26 26 26 26 26 26 26 25 24 24 24 24 24 24 23 20 19 18 17 16 17 17 17 16 15 13 12 11 11 11 12 13 14 15 16 16 16 17 16 15
54 54 54 54 55 54 54 53 52 51 50 49 47 45 44 43 42 41 39 38 38 39 40 41 41 40 40 39 39 38 37 36 35 34 34 33 33 32 32 31 31 30 29 28 27 27 27 27 27 27 27 27 26 25 24 24 24 24 24 23 22 21 19 18 18 18 19 18 17 16 14 13 13 13 12 13 14 15 16 18 19 18 17 17 17
54 54 54 55 55 55 54 53 52 51 50 48 47 45 44 43 43 42 40 40 40 40 41 42 41 41 41 40 39 39 38 38 37 36 35 34 34 34 33 33 32 31 30 29 28 27 27 28 28 27 26 26 26 25 25 25 24 24 23 23 23 22 21 20 20 19 19 19 19 17 15 14 14 13 12 13 14 15 16 19 21 20 19 18 18
54 54 54 55 56 55 54 53 52 51 50 49 47 46 44 43 43 42 41 41 40 40 41 41 42 42 42 41 40 40 40 40 39 37 36 35 35 35 34 33 33 33 32 30 29 28 28 28 28 27 26 25 26 25 25 25 25 25 24 24 23 23 22 22 21 20 20 20 20 19 17 16 14 13 12 13 14 15 16 19 21 21 21 20 18
53 54 54 55 55 54 54 53 53 52 51 49 48 46 44 43 43 42 41 41 41 41 41 42 43 43 43 42 41 41 41 41 39 37 36 36 36 36 35 34 33 33 33 32 31 29 28 28 29 27 25 25 28 28 26 26 26 26 26 25 24 23 23 23 23 21 21 22 22 20 18 17 15 13 13 13 14 16 18 20 21 20 20 20 20
53 54 54 54 54 54 54 54 53 52 51 49 48 47 45 44 43 42 42 41 41 41 42 43 44 44 44 43 42 42 42 41 39 37 36 36 36 36 35 35 34 33 33 32 31 29 29 29 30 27 23 23 29 31 30 28 27 26 26 26 25 24 24 24 24 22 21 22 22 20 19 18 16 13 13 15 16 18 19 20 20 19 18 19 20
53 53 53 53 53 53 53 53 53 53 51 50 48 47 46 45 44 43 43 43 42 42 43 44 44 44 44 44 44 43 42 40 38 37 37 36 35 35 35 34 34 34 33 31 31 31 31 29 30 28 23 23 28 31 32 31 29 27 26 26 26 26 25 25 25 23 22 22 22 21 20 19 17 15 15 16 18 19 20 20 20 18 17 18 20
53 53 53 53 53 53 53 53 53 53 52 50 49 49 48 48 47 45 45 44 43 43 44 44 45 45 45 45 45 44 43 40 38 38 37 36 35 34 34 34 34 33 31 31 32 32 28 27 28 28 25 24 28 31 33 33 30 28 27 26 27 28 28 27 25 24 23 23 22 22 20 20 21 19 17 16 17 20 21 20 18 17 17 18 20
53 53 53 53 53 52 52 52 53 53 52 51 50 50 50 50 48 47 47 46 46 46 45 45 45 46 46 46 46 45 43 40 39 38 37 36 34 33 33 34 33 32 32 34 34 29 25 24 27 28 25 25 29 32 33 33 30 28 27 27 28 29 29 28 26 25 24 23 23 23 23 23 24 22 19 18 18 19 19 19 18 17 17 19 20
52 52 52 52 52 52 52 52 53 53 52 51 51 51 51 50 49 49 49 49 48 48 46 45 46 47 47 46 46 46 43 41 40 39 38 36 34 33 34 34 34 33 34 35 31 26 24 24 25 26 26 26 28 29 31 32 30 27 26 27 29 29 30 29 26 24 24 24 24 25 26 25 24 22 20 20 19 17 17 19 18 18 19 20 21
51 51 51 51 52 52 52 52 52 52 52 51 51 52 52 51 50 50 50 50 50 50 49 48 47 48 47 47 47 46 44 42 41 40 38 36 35 35 35 35 35 34 34 33 29 26 27 27 26 27 28 26 25 26 27 29 30 27 26 27 28 30 30 28 26 25 25 25 26 26 26 24 22 21 20 19 18 17 17 18 18 19 20 22 23
49 49 50 51 51 51 51 52 52 52 51 52 52 52 51 51 51 50 51 51 52 52 51 50 49 49 48 48 48 47 45 44 42 41 38 37 36 36 36 36 35 34 33 31 29 28 29 29 27 27 27 25 24 24 24 26 28 26 25 25 27 29 29 27 26 25 24 24 25 25 24 22 21 20 18 18 17 16 17 18 18 19 21 22 24
47 48 49 49 50 50 50 50 51 51 51 51 51 51 50 50 50 51 51 51 52 52 51 51 51 51 50 49 48 47 46 44 43 41 39 38 38 37 37 36 35 33 31 30 29 29 30 29 26 26 27 25 23 22 21 22 23 23 22 23 25 27 28 27 25 24 24 23 24 24 24 22 20 18 17 17 16 15 16 17 18 20 21 22 23
47 46 45 46 47 48 48 49 50 51 51 51 51 50 50 50 50 50 51 51 51 51 50 51 52 52 51 50 49 48 47 45 44 42 41 40 39 38 38 37 36 33 30 28 29 31 32 30 27 26 26 24 23 22 21 21 22 21 21 22 24 25 25 25 23 23 22 22 23 23 22 20 20 19 18 16 15 15 16 18 19 21 21 20 19
44 43 42 44 45 46 47 48 49 49 49 49 49 49 49 49 49 50 51 51 51 51 50 51 51 51 51 51 50 49 48 47 45 44 42 41 39 39 38 37 36 33 28 26 28 30 30 30 27 26 24 22 20 20 20 21 21 20 21 23 24 24 23 22 20 20 19 20 20 19 17 16 18 18 16 14 14 16 18 19 20 19 17 15 14
39 41 41 43 44 45 46 47 48 48 46 46 46 48 48 49 50 51 51 52 52 53 52 52 51 50 50 49 49 49 49 48 46 45 44 42 40 39 38 36 34 31 27 26 27 28 28 27 25 22 20 18 17 17 19 19 19 20 21 22 22 21 20 19 18 17 17 17 17 16 16 16 16 15 14 13 15 17 18 17 16 14 12 11 11
38 39 40 41 42 43 44 46 47 48 47 47 48 49 48 49 50 51 52 53 53 53 53 52 50 50 49 49 49 48 48 48 47 45 44 43 41 39 37 34 31 28 28 28 28 27 26 23 19 16 14 14 14 16 17 17 17 19 21 21 20 19 19 18 18 16 16 16 16 17 18 16 14 13 13 14 15 16 15 13 11 10 9 9 10
35 36 38 39 40 41 43 46 48 49 49 50 51 51 50 49 50 51 53 54 53 53 52 51 50 50 49 49 48 48 48 47 46 45 44 42 40 38 35 31 29 28 28 28 26 25 21 17 14 13 12 12 12 13 15 16 17 20 21 21 20 19 19 19 18 16 16 17 16 17 17 14 13 14 13 13 14 13 11 9 8 7 8 9 11
32 34 35 37 38 39 42 44 47 48 49 50 51 52 52 51 51 52 53 53 52 51 52 52 51 51 51 50 49 48 47 46 45 44 43 41 38 35 32 30 29 28 28 27 26 23 18 13 13 13 11 11 11 11 13 15 17 19 21 20 20 20 21 20 18 17 18 17 17 17 16 14 14 13 12 12 12 10 8 7 7 7 8 10 12
27 30 32 34 36 37 40 43 45 47 48 49 51 52 53 52 51 51 50 50 51 52 53 53 53 53 53 52 51 49 48 46 44 43 41 39 37 34 30 29 28 28 28 27 25 21 17 14 13 12 11 11 12 13 15 17 18 18 19 19 20 21 21 20 20 20 20 18 17 17 16 15 14 12 12 11 9 6 6 6 7 9 10 12 14
21 24 27 30 32 34 37 41 43 45 47 49 51 51 51 50 49 49 49 51 53 54 54 54 54 54 54 53 52 51 49 47 44 42 40 38 36 33 29 28 29 29 28 25 21 19 17 15 13 12 12 13 14 15 16 16 16 16 17 19 21 22 21 21 21 21 20 18 17 16 15 15 14 12 10 8 6 6 7 8 9 11 13 14 15
17 19 22 25 28 31 35 37 40 42 45 47 49 49 49 49 50 52 53 54 55 56 56 56 56 56 55 54 53 51 49 48 45 42 40 39 36 32 30 30 29 28 27 24 21 20 18 16 14 15 15 15 16 16 15 14 14 16 18 20 21 21 20 20 21 19 17 16 16 16 16 15 13 11 9 8 8 9 10 10 11 12 14 16 17
13 16 19 22 25 28 31 34 36 38 41 43 45 47 48 50 52 55 57 58 58 58 58 58 58 58 57 55 52 51 48 47 45 43 41 38 34 32 31 30 29 27 26 24 22 20 18 17 17 18 18 18 18 17 16 15 16 17 19 20 20 20 20 20 20 18 16 16 16 17 16 14 12 11 10 9 10 11 12 12 13 14 15 17 18
12 12 14 17 21 24 27 29 31 33 35 38 42 45 48 51 54 56 59 60 61 61 61 61 61 60 57 55 54 54 50 46 43 41 37 34 31 30 30 30 28 26 24 23 21 20 20 20 19 19 19 19 18 17 17 18 18 19 19 20 20 20 21 21 20 18 17 16 16 16 14 13 13 12 11 11 12 13 14 14 15 16 16 18 19
17 15 14 14 16 18 20 23 25 27 29 32 36 40 45 49 52 56 58 59 60 62 62 61 59 58 57 57 57 55 49 42 37 34 31 31 30 29 27 26 24 21 20 20 20 21 21 20 19 19 19 19 18 18 18 18 18 19 19 19 20 20 19 18 18 17 17 16 16 16 15 14 14 13 13 13 14 15 16 16 17 17 17 18 19
17 17 17 16 15 15 15 16 18 21 23 27 30 34 39 44 49 54 57 58 58 60 61 61 60 58 58 59 57 51 45 37 30 26 26 29 30 28 27 24 21 19 20 21 22 22 21 20 20 19 19 19 18 18 17 17 18 18 18 18 18 17 15 15 16 17 17 16 16 16 16 15 14 14 15 15 16 17 18 18 18 18 17 18 19
11 12 14 14 13 13 12 11 12 14 17 20 23 26 30 35 38 42 50 57 60 62 62 61 60 59 59 58 53 47 42 35 27 24 27 30 30 29 27 25 22 21 22 22 21 21 21 20 20 18 18 19 19 17 17 18 18 17 17 17 16 16 15 15 16 16 16 16 16 16 16 16 15 16 17 17 18 18 18 18 18 17 18 19 21
7 8 9 10 11 11 10 10 11 12 13 14 15 19 24 27 26 27 36 49 58 62 64 65 65 63 59 54 46 40 35 30 27 30 32 31 28 27 26 25 23 23 23 23 22 22 21 20 19 18 18 19 18 17 17 19 18 17 16 16 15 15 16 16 16 15 15 16 16 16 16 17 17 18 19 19 19 18 18 17 17 17 19 21 22
16 14 12 11 10 9 9 10 10 12 13 12 14 21 24 23 21 22 27 40 49 52 56 62 63 58 48 38 30 25 25 29 33 34 34 32 29 27 24 22 22 22 22 23 24 23 22 20 20 19 19 18 18 17 17 17 17 17 16 17 17 17 17 16 16 16 15 14 14 15 16 17 18 19 19 19 18 17 17 16 17 18 20 21 21
21 20 19 17 17 16 15 14 14 16 18 17 19 23 25 23 23 24 19 32 52 58 57 54 48 42 34 30 27 25 28 32 33 32 32 32 32 30 25 23 23 24 24 24 23 22 21 21 20 19 18 17 17 16 15 15 16 17 18 19 19 18 17 17 16 15 14 13 13 14 15 16 17 18 18 17 17 17 17 16 17 18 19 19 19
19 19 18 17 16 16 14 14 14 15 17 18 19 22 25 25 28 31 25 12 28 47 60 56 47 43 40 35 32 29 28 28 28 28 28 28 27 26 24 22 24 27 27 25 23 21 20 20 19 18 17 17 16 15 14 15 17 19 19 18 17 16 15 15 15 14 13 13 13 14 15 16 17 17 17 17 17 16 15 15 16 17 18 18 18
16 16 15 14 14 12 11 12 13 12 13 16 18 20 23 25 28 32 32 23 16 34 55 56 49 47 45 39 33 30 27 26 26 26 25 23 22 20 19 20 24 27 26 24 23 22 21 20 19 18 17 17 16 15 16 18 19 19 17 15 14 14 14 14 13 13 12 12 12 14 15 16 16 17 17 17 17 15 14 14 15 16 17 18 18
13 12 12 12 11 10 9 9 10 10 12 14 15 18 20 22 26 29 30 29 29 35 42 43 40 39 39 37 34 32 30 30 28 25 23 22 20 19 19 22 25 25 23 22 22 22 21 20 19 18 17 17 16 16 18 19 18 16 15 14 14 14 13 13 12 11 11 10 11 13 14 15 16 16 16 16 15 14 13 13 15 16 17 17 17
9 9 9 8 8 7 6 7 8 11 13 13 13 14 16 18 20 22 24 25 27 28 29 30 29 28 28 29 29 29 28 27 24 21 20 19 18 19 22 24 24 23 22 20 20 20 20 20 20 19 18 18 18 18 18 17 16 15 14 13 13 13 12 11 10 9 8 8 9 11 13 14 15 15 16 15 14 13 13 14 15 16 16 16 14
7 7 6 6 6 5 5 5 7 9 11 12 12 12 12 14 15 16 16 18 19 19 20 21 21 20 19 21 24 23 21 19 18 17 17 17 19 21 24 24 23 22 21 20 19 19 19 20 21 20 19 19 19 19 17 15 14 13 12 12 11 10 9 9 7 6 7 8 9 11 13 15 16 16 15 15 13 13 14 15 16 16 16 14 13
7 7 7 6 5 5 5 5 6 8 9 9 10 10 10 10 11 12 13 13 12 12 13 16 18 17 17 19 19 16 14 14 15 16 17 19 22 24 25 23 22 21 21 20 19 19 19 20 21 21 21 20 19 17 15 14 13 12 12 11 10 8 8 7 6 6 7 9 11 14 15 16 16 16 15 14 14 14 15 16 16 16 16 14 13
7 7 8 6 5 5 5 5 6 6 7 7 7 7 7 6 7 8 10 12 12 13 16 19 20 19 19 18 16 14 14 15 16 18 20 22 23 24 24 23 22 21 21 20 19 19 19 20 20 21 21 20 18 15 14 13 13 12 11 9 8 8 8 7 7 8 10 12 13 15 16 16 16 15 15 14 15 16 17 17 17 17 16 14 13
6 6 7 6 5 5 5 5 5 4 5 5 6 5 5 4 5 6 8 10 11 12 15 17 18 19 19 18 17 16 17 18 19 20 21 23 24 24 23 22 22 21 20 19 19 18 18 19 20 20 19 17 14 13 12 11 11 10 9 8 8 8 9 8 9 10 11 13 14 16 16 16 16 15 15 16 17 18 18 19 19 19 17 15 13
8 6 6 5 5 5 5 5 5 4 4 4 4 4 4 4 4 6 7 8 9 11 13 15 17 18 19 19 18 17 17 17 18 18 19 20 22 23 22 21 21 21 20 20 18 17 17 18 19 18 16 14 13 12 11 11 10 9 8 8 8 8 8 8 8 9 11 13 14 15 15 15 14 15 15 17 18 19 19 20 21 20 18 15 13
7 7 7 7 6 5 5 5 6 6 6 6 4 2 3 3 3 4 6 6 7 9 12 14 16 17 18 19 18 16 16 16 16 16 16 18 19 20 20 20 19 19 19 19 18 18 18 17 17 17 16 16 15 13 11 10 9 8 7 6 6 6 5 5 6 8 10 12 13 14 14 13 14 15 16 18 19 20 21 22 22 20 17 15 13
5 6 8 9 8 8 7 6 6 6 6 6 4 3 1 1 2 3 4 5 7 9 11 12 15 17 18 18 18 16 15 16 16 15 15 17 18 18 18 17 17 18 18 19 19 18 17 16 16 16 16 16 14 12 11 9 8 7 5 4 3 2 1 2 3 4 6 9 11 12 13 13 15 16 18 19 20 21 21 21 20 18 16 14 13
7 7 8 8 8 8 8 8 7 7 7 7 5 3 2 2 3 4 5 6 8 11 12 13 16 19 19 18 17 17 16 17 17 16 17 18 18 17 16 16 17 18 19 18 18 18 17 17 16 15 14 13 12 11 10 9 9 8 6 4 3 3 3 3 2 2 3 5 8 10 12 14 16 17 18 18 19 18 18 18 17 16 15 14 12
8 7 6 6 7 8 9 9 9 10 10 11 10 7 6 6 6 7 8 7 9 12 14 15 18 21 20 19 18 17 17 18 18 18 19 19 17 15 15 16 18 18 19 18 18 18 17 17 16 15 13 12 11 11 11 10 9 8 7 7 6 6 6 6 6 5 4 3 4 7 9 11 13 14 15 15 15 15 16 16 16 15 15 13 12
10 10 9 8 7 7 8 9 9 10 12 13 13 12 11 11 10 8 8 8 8 11 14 16 19 21 21 20 19 18 18 19 20 20 19 18 16 15 16 18 18 18 18 18 18 18 17 16 15 14 13 12 11 11 11 10 10 9 9 9 9 9 10 10 10 9 8 5 4 5 6 8 10 11 12 13 13 14 15 15 15 15 15 13 12
9 9 10 10 10 10 10 10 10 11 11 12 13 14 13 13 13 12 10 9 8 10 13 15 18 19 19 18 18 18 19 19 20 19 18 17 17 17 18 19 18 18 18 18 18 18 17 16 16 15 13 12 11 11 10 9 9 9 8 7 8 9 10 11 11 11 10 8 6 5 6 7 8 10 11 12 13 14 15 15 15 15 14 13 12
9 9 9 10 11 12 12 11 12 12 12 12 13 13 14 14 13 11 11 11 11 12 13 14 16 17 17 16 17 18 19 19 19 18 18 18 18 18 18 18 18 19 19 19 19 18 18 17 16 15 13 11 11 10 8 8 7 6 5 4 5 5 6 7 8 9 9 9 9 8 6 6 7 8 9 10 12 13 14 15 15 15 14 13 12
Wind_Direction
231 232 233 233 233 234 235 235 235 235 235 236 237 238 240 240 239 237 237 238 239 238 238 238 239 240 242 244 245 247 247 245 245 244 244 243 244 246 246 244 244 242 242 243 243 245 245 245 248 251 251 252 250 248 247 248 247 245 246 248 250 256 264 272 279 283 282 276 269 261 254 254 258 262 267 269 272 278 283 287 288 289 289 287 287
231 232 233 233 234 235 236 236 236 236 236 236 237 238 239 241 241 239 237 238 239 239 239 239 239 240 241 243 245 246 247 246 246 245 246 245 244 246 248 248 246 245 243 243 243 245 246 245 246 249 250 251 250 249 250 250 250 250 251 253 256 260 265 270 276 279 278 275 269 260 255 256 259 261 265 267 271 278 284 287 289 289 289 288 288
231 232 232 233 235 235 236 236 237 237 237 237 238 238 239 240 241 241 239 238 238 240 240 240 240 240 241 242 243 245 246 247 246 246 247 247 247 248 250 251 251 249 247 245 245 246 247 246 245 246 249 250 250 250 250 250 251 252 252 254 257 260 262 266 270 272 274 271 265 257 251 252 255 259 263 266 272 278 283 286 289 291 292 290 288
230 230 231 233 234 234 235 236 236 237 238 238 238 238 239 240 241 242 241 239 239 239 240 241 241 241 241 241 242 243 245 246 246 247 248 249 250 250 252 253 255 254 252 250 249 249 248 247 245 245 247 248 249 249 250 250 251 251 252 254 257 258 259 263 265 265 267 267 263 256 250 251 256 261 268 272 277 284 290 295 297 297 297 295 292
228 229 231 232 232 233 234 235 236 237 238 238 239 239 240 240 241 242 242 241 240 239 240 240 240 241 241 241 241 242 243 244 245 247 249 251 251 252 253 254 256 257 256 254 252 252 251 249 247 246 246 247 248 249 250 251 251 251 252 254 256 258 258 260 261 260 261 263 262 257 252 255 262 268 274 278 282 289 297 304 307 305 304 302 297
228 229 230 230 231 233 234 235 236 237 238 238 239 240 240 240 241 242 242 242 241 239 239 240 240 241 241 241 241 242 242 243 244 246 248 251 252 253 253 254 256 257 257 256 255 254 254 252 250 248 247 247 247 249 251 252 251 251 252 254 257 259 259 260 262 261 262 262 262 259 256 260 269 273 276 281 287 295 303 308 309 309 309 305 299
227 228 229 230 231 233 235 236 237 237 238 239 240 240 240 240 240 241 242 242 241 239 238 239 239 240 241 242 242 242 243 243 243 245 247 250 251 253 254 254 255 256 258 258 257 257 256 255 253 251 249 248 248 249 251 252 252 252 254 256 257 259 258 258 259 261 263 262 261 260 261 265 271 276 280 286 292 300 307 309 308 309 309 303 298
227 228 229 229 232 235 236 236 237 237 238 239 240 240 240 240 240 241 242 242 241 239 238 238 239 240 241 242 242 242 243 243 243 243 245 247 250 252 253 254 255 256 258 258 259 260 260 259 258 256 253 251 251 252 253 254 254 255 257 257 257 258 256 255 256 259 260 260 258 258 260 265 269 274 281 286 291 297 304 306 307 310 308 301 299
228 228 228 231 234 236 235 235 235 236 237 238 239 239 239 240 240 241 241 242 241 239 238 238 238 239 240 241 242 242 242 242 242 242 244 246 248 250 252 253 255 256 257 259 260 261 262 264 265 264 263 261 259 257 257 257 256 257 258 258 257 257 255 253 253 256 259 258 257 256 259 262 265 271 278 283 289 294 298 301 305 308 306 300 300
228 228 230 233 235 234 233 234 234 235 236 237 238 238 238 238 239 240 240 241 241 239 238 238 237 238 239 240 241 242 242 242 242 242 243 245 248 250 252 254 255 256 258 259 260 261 265 269 271 272 274 275 272 266 262 261 259 257 257 258 256 254 253 252 251 255 259 259 258 258 259 260 262 268 278 284 289 293 295 298 301 303 302 299 300
228 229 233 235 234 232 232 232 233 234 235 236 237 237 236 237 237 238 239 240 240 239 238 237 236 236 238 239 240 241 242 242 242 243 244 245 247 250 253 255 257 258 259 261 263 267 268 269 271 275 276 273 271 269 265 262 259 257 256 256 255 252 250 251 252 255 258 259 259 259 258 260 264 270 279 286 290 292 293 296 297 297 296 295 298
229 232 235 234 231 231 232 232 232 234 235 235 236 236 236 235 236 237 237 238 238 239 237 236 236 236 237 238 239 240 241 242 242 243 244 245 247 251 254 256 258 259 261 263 265 265 266 269 272 272 267 258 256 258 260 261 258 255 255 256 255 252 249 250 253 255 257 258 259 258 259 264 270 275 279 284 287 290 293 295 294 292 290 291 297
231 233 233 231 231 232 232 232 232 234 235 235 235 235 235 235 235 235 236 237 238 238 237 236 236 236 237 238 238 240 241 242 242 243 244 245 247 250 254 256 258 260 262 262 260 260 264 268 267 263 258 253 247 244 249 257 258 255 252 253 254 253 249 249 251 252 254 255 256 257 260 264 269 272 276 282 286 290 296 296 291 286 285 289 297
231 232 231 230 231 232 231 232 234 234 235 234 233 234 235 236 236 236 236 237 237 238 237 237 236 236 236 237 239 240 241 242 242 243 244 246 247 249 252 255 257 259 259 257 257 258 260 262 262 261 258 254 249 243 243 250 256 255 249 248 252 252 249 247 248 249 250 251 254 257 258 261 266 270 276 281 285 291 295 292 286 282 284 291 296
232 232 231 230 230 231 231 233 234 234 233 232 233 234 235 236 237 237 237 237 238 238 238 238 237 237 237 237 239 240 241 242 243 244 245 246 247 249 251 253 255 255 255 255 257 259 259 258 262 264 259 252 249 247 243 245 251 256 253 250 251 253 251 249 248 248 248 249 252 256 259 263 267 272 275 278 283 289 289 284 282 283 288 292 295
231 231 231 231 231 231 232 232 233 232 231 231 232 234 235 237 237 237 238 239 240 240 240 239 239 238 238 239 240 240 241 242 243 244 246 247 248 249 250 251 251 252 253 256 258 259 259 259 259 261 261 257 254 253 248 244 247 254 258 255 251 252 253 250 249 249 248 251 255 260 266 269 269 270 272 275 282 286 280 276 278 284 289 292 294
231 233 233 234 234 233 232 231 231 231 230 230 232 234 236 237 237 237 238 239 240 240 241 241 241 241 241 240 241 241 241 242 243 244 246 247 248 249 249 248 248 250 253 256 257 256 258 259 259 261 264 261 257 257 252 245 243 247 255 256 251 250 252 250 249 248 249 253 258 263 268 270 267 267 271 275 281 282 275 273 279 286 289 292 294
234 234 236 237 236 235 234 233 232 232 232 233 235 236 237 238 238 238 238 239 241 242 243 243 243 243 243 242 242 242 243 243 244 245 246 247 248 249 249 248 248 249 251 254 256 256 256 258 259 261 263 263 259 255 248 242 241 243 249 251 246 245 248 247 246 247 250 255 261 266 270 268 263 263 268 275 280 280 276 277 283 286 288 291 293
237 237 239 240 239 237 236 235 234 234 235 237 238 238 238 238 238 239 239 240 242 243 244 245 245 245 245 244 244 244 245 245 246 246 247 247 248 249 248 248 247 248 249 251 255 256 256 258 259 257 258 260 257 249 242 241 241 242 245 245 241 240 242 243 243 246 252 259 266 271 273 268 259 259 267 274 279 279 279 281 285 287 288 290 291
242 242 242 239 238 238 238 237 237 237 239 241 241 241 240 239 239 239 240 241 241 242 243 244 245 246 246 246 246 245 245 245 246 246 247 248 248 248 247 247 247 248 247 248 252 256 259 262 264 262 261 260 255 247 242 240 239 240 240 239 237 236 236 237 242 249 256 264 268 269 266 258 253 256 264 271 276 279 282 285 288 289 289 289 287
243 242 240 239 238 239 239 239 240 242 244 245 243 241 240 240 240 240 241 240 239 239 240 240 242 245 246 247 247 247 246 246 245 246 247 248 248 248 247 247 248 250 251 249 250 254 257 261 265 265 262 260 257 249 243 240 238 236 234 234 235 234 232 235 242 249 255 262 267 267 260 253 250 252 258 269 278 282 285 287 287 287 287 285 281
242 242 242 242 241 242 243 243 243 243 244 243 241 240 241 241 240 240 240 239 238 237 237 237 238 241 244 245 247 248 248 247 247 246 247 248 248 248 248 249 251 251 251 251 252 254 256 257 258 254 247 247 249 245 241 240 237 231 228 228 230 229 229 235 241 248 256 262 266 266 260 250 248 253 262 274 282 284 285 286 287 288 286 281 279
248 247 248 247 247 247 247 246 245 243 242 241 240 241 240 239 240 240 238 237 236 235 235 235 236 238 241 242 245 247 248 248 247 247 247 248 248 248 249 250 252 251 251 252 255 257 254 245 235 229 229 235 240 239 236 232 227 223 222 225 227 226 229 233 237 247 259 262 261 262 257 250 252 260 268 277 282 282 285 291 296 292 284 282 289
251 251 251 251 251 251 251 249 247 246 244 242 241 241 240 239 239 238 236 233 233 233 234 234 235 236 238 240 242 243 244 246 247 247 247 247 248 248 249 249 249 250 250 251 253 251 242 224 214 216 223 229 232 232 229 223 217 217 220 224 227 229 230 230 234 247 259 259 256 255 255 252 256 263 271 276 279 284 294 303 302 292 283 288 297
251 252 252 252 253 253 251 250 249 248 246 244 242 242 241 238 236 234 231 230 231 233 234 233 233 234 235 236 238 239 240 241 243 244 246 246 246 246 246 247 247 247 247 246 245 240 227 213 209 213 217 218 216 218 220 215 210 213 220 225 228 230 232 234 239 250 258 257 252 251 251 251 255 263 269 270 273 282 293 296 294 288 285 290 297
254 254 254 254 255 254 253 252 250 249 247 244 243 243 241 237 234 233 232 232 233 233 233 232 232 232 233 234 236 236 237 237 239 240 241 241 241 241 241 241 241 240 239 237 231 224 217 211 207 207 207 206 209 215 217 212 207 210 218 225 230 233 237 240 244 252 257 254 247 245 245 248 253 258 259 261 265 272 277 280 281 282 283 287 294
260 259 256 255 253 252 253 254 253 252 250 246 244 243 240 238 237 235 234 234 233 232 232 231 230 230 231 232 232 232 234 235 236 236 236 235 235 234 234 233 230 228 227 224 218 214 213 211 208 206 207 207 208 211 211 205 203 209 218 227 233 237 239 242 246 252 253 243 236 235 239 246 251 251 248 250 259 264 268 271 272 276 282 287 294
270 266 262 260 256 253 251 252 252 253 253 251 249 248 245 243 240 237 237 236 234 232 231 231 231 231 229 227 226 227 230 235 236 235 234 233 231 229 228 225 219 216 216 214 211 209 209 209 208 207 207 209 209 208 208 207 206 211 220 229 233 235 236 240 245 247 240 230 229 233 237 242 245 243 242 249 259 265 269 272 274 279 285 290 295
302 290 277 269 265 261 259 258 257 256 255 255 255 254 252 250 246 243 243 242 240 238 236 234 234 234 230 227 227 227 227 230 233 233 234 234 232 228 225 219 211 209 212 210 206 205 205 206 209 211 211 212 212 210 212 215 214 214 219 225 229 232 237 242 246 243 235 231 233 233 232 236 241 243 247 256 264 268 271 275 279 283 288 292 293
303 302 297 288 278 271 269 266 264 264 262 260 259 258 257 255 252 249 248 246 244 243 241 239 240 239 235 232 232 233 232 229 226 226 230 233 229 221 215 210 205 206 210 207 203 205 207 208 211 216 217 216 215 215 218 219 215 213 216 222 227 233 238 238 235 230 226 227 228 226 226 234 241 244 250 258 265 268 273 278 281 283 286 288 288
294 297 298 297 292 286 279 272 269 268 267 265 264 263 262 261 257 252 249 248 246 244 241 239 239 240 238 234 231 232 232 229 223 221 221 217 211 200 191 190 196 203 204 201 200 204 210 213 216 219 220 219 217 220 221 216 211 211 216 222 225 226 223 217 215 216 219 221 222 222 227 237 243 246 252 260 265 269 274 278 280 282 283 283 285
299 302 303 305 309 309 306 302 297 293 288 283 280 278 279 280 276 265 255 251 249 245 242 238 234 234 235 234 231 229 228 223 215 206 198 192 188 184 180 182 192 198 196 196 203 209 212 214 215 217 219 218 216 216 215 211 211 214 216 219 220 216 209 208 212 217 220 221 222 227 235 243 247 250 255 260 265 269 273 276 279 282 282 282 285
354 338 331 332 335 334 335 337 334 333 330 319 314 316 314 311 309 295 271 257 249 243 239 236 232 227 226 226 228 231 227 211 192 183 180 178 176 176 176 179 187 193 194 196 203 209 210 212 214 214 215 215 214 213 213 213 215 214 211 212 215 212 206 209 217 225 228 228 230 235 241 246 249 252 256 261 265 268 272 275 279 279 279 280 284
55 52 47 38 30 29 32 29 23 20 16 7 358 355 346 335 334 328 295 267 252 241 232 225 220 215 211 208 210 214 202 181 173 174 176 175 174 175 176 179 183 190 198 203 206 207 207 208 208 206 206 209 211 211 212 212 209 203 201 203 206 205 208 216 225 230 232 233 236 241 245 249 252 255 258 262 265 267 270 274 276 274 275 278 281
63 63 63 61 60 60 58 53 47 40 33 26 16 9 6 1 4 7 335 271 246 225 209 200 193 185 177 170 166 168 167 165 166 170 171 171 174 176 179 185 188 191 196 199 202 204 204 201 199 198 200 203 205 207 209 206 198 194 197 201 203 207 215 223 227 228 228 231 235 241 247 251 253 256 258 261 264 267 271 272 271 272 274 276 279
59 60 61 60 59 61 59 55 50 41 33 28 20 16 20 21 23 31 27 309 230 190 168 158 152 148 148 149 150 155 160 162 164 167 168 171 175 173 174 185 195 196 194 191 191 194 195 193 193 195 196 197 201 205 203 195 191 193 198 202 206 213 218 220 221 223 225 229 235 240 245 248 251 253 256 260 263 266 267 267 268 271 272 273 278
55 57 58 56 53 54 58 59 52 38 27 25 19 16 23 29 31 38 43 39 66 113 122 124 127 131 137 142 147 154 157 158 160 163 165 168 169 165 169 185 195 194 191 188 185 184 184 186 189 192 193 196 200 199 191 186 188 193 198 201 206 210 212 214 218 222 226 231 236 239 242 245 248 251 255 259 262 264 263 263 266 267 268 272 280
45 49 54 53 45 43 51 57 50 32 19 18 13 5 11 28 41 50 58 60 63 80 98 109 116 122 127 133 142 153 158 159 159 160 159 161 162 164 173 187 193 191 187 185 182 178 177 181 184 186 191 197 196 188 183 184 189 194 198 201 204 206 209 214 218 221 227 233 236 237 238 242 247 252 257 260 261 260 260 260 261 263 268 276 282
27 29 37 40 33 31 41 47 43 34 23 17 15 7 6 23 46 59 66 69 71 76 88 100 109 116 123 132 145 158 165 165 163 162 160 161 166 172 180 187 189 186 183 181 179 177 178 181 184 185 189 191 186 182 183 188 193 197 200 203 206 208 212 216 219 225 235 241 241 240 243 248 254 259 261 260 257 256 256 256 259 264 272 278 281
15 11 13 17 14 15 24 33 38 40 33 23 20 21 23 33 48 58 59 63 69 74 81 92 104 117 134 149 159 166 169 168 164 163 165 167 172 181 186 187 184 181 179 179 179 180 184 187 187 185 183 182 182 184 190 194 197 200 202 205 208 212 217 223 230 241 252 253 251 251 253 257 261 262 260 256 253 253 253 254 259 268 274 277 280
27 20 17 22 25 20 20 28 36 43 48 41 32 29 35 45 59 69 74 78 86 95 106 116 123 133 147 159 165 167 166 166 167 171 175 178 180 183 184 181 176 173 173 175 179 183 186 187 184 179 177 180 186 190 193 196 198 200 202 206 212 222 230 236 246 257 260 259 259 260 261 262 262 260 256 253 251 251 251 255 262 270 275 278 282
27 26 24 30 46 48 36 37 45 44 45 50 50 41 37 46 65 83 96 107 116 125 133 139 144 149 155 159 162 161 155 156 164 170 173 174 174 173 171 168 166 165 167 172 177 180 180 180 178 177 180 186 191 192 193 195 198 200 205 214 225 235 242 247 254 262 264 265 265 265 264 263 259 254 250 248 249 250 251 256 263 270 276 280 285
14 18 20 25 40 46 34 31 47 56 46 42 45 44 41 56 84 98 107 118 126 133 142 149 153 156 156 155 154 150 145 145 150 155 158 161 162 162 162 161 160 159 162 166 171 174 176 177 178 180 184 188 189 188 190 193 197 203 214 226 236 242 246 253 262 269 272 272 271 268 265 261 253 245 242 243 246 249 251 256 264 271 276 280 284
9 7 8 8 8 16 22 27 38 50 49 40 39 47 54 66 92 111 121 132 139 145 153 159 160 158 154 151 150 150 148 146 147 150 152 155 157 159 160 160 158 158 160 164 168 172 175 176 177 178 180 179 178 179 183 190 200 214 227 236 242 248 255 263 273 278 277 274 271 268 263 256 246 239 239 243 246 248 252 259 266 272 274 277 282
14 16 14 9 358 355 10 34 44 45 42 36 30 43 73 80 87 102 115 132 149 159 162 163 163 161 156 153 154 157 156 153 154 156 155 155 156 158 159 160 160 161 163 165 168 169 171 172 174 175 174 173 174 178 185 196 208 218 224 230 239 248 257 269 276 276 272 268 264 261 256 250 243 240 241 244 247 251 257 263 268 270 270 273 279
342 348 352 356 357 352 348 1 22 30 31 28 17 8 34 99 114 117 124 139 161 172 173 169 168 169 166 161 162 165 164 161 161 159 155 156 157 158 158 160 161 163 165 166 166 165 166 168 171 173 174 174 177 183 190 195 193 187 182 185 200 218 248 279 282 278 274 268 260 253 248 245 243 245 247 251 255 260 264 266 267 266 267 272 277
327 318 318 328 342 343 333 321 321 334 344 346 340 328 290 224 186 168 163 168 175 182 185 180 174 172 171 169 170 172 171 168 166 162 159 159 160 161 163 164 163 164 166 166 164 164 164 166 168 172 174 176 179 183 182 174 165 157 148 132 110 86 59 39 19 347 309 279 264 257 252 250 251 254 257 260 264 265 266 265 264 264 268 273 276
8 359 347 337 330 328 324 313 303 306 311 312 309 303 286 263 232 200 188 188 186 185 188 186 179 174 173 175 178 179 176 172 168 164 162 163 166 168 169 166 165 166 168 166 164 164 165 166 168 171 172 173 175 174 168 160 154 145 127 104 87 73 63 57 50 38 18 336 292 275 266 262 263 264 265 266 266 265 265 265 265 268 272 274 273
33 31 28 20 3 347 341 333 321 314 310 306 304 302 296 287 275 247 219 205 194 188 188 185 180 177 178 181 183 182 179 174 170 167 168 171 175 174 171 168 168 170 168 165 163 164 165 166 168 168 166 165 164 159 153 149 144 135 118 96 78 68 60 57 54 49 41 23 349 308 286 278 274 271 269 268 267 265 266 268 269 271 274 274 271
41 39 35 32 25 15 5 356 349 342 334 324 317 310 302 298 294 277 249 221 197 187 187 186 185 184 183 182 181 181 178 174 173 174 176 178 177 175 172 171 171 171 168 165 164 163 162 163 164 163 161 161 159 154 148 143 139 134 120 93 71 59 54 53 54 53 47 35 15 340 305 290 284 280 276 272 268 267 268 269 270 272 273 271 269
41 41 40 40 38 33 25 17 10 5 358 349 336 320 308 306 305 286 251 217 190 177 176 181 185 184 178 172 174 179 178 175 174 177 179 177 175 174 174 174 173 172 169 167 164 162 160 161 163 163 163 163 162 161 159 154 151 148 134 97 63 48 47 51 52 51 45 35 21 6 343 320 308 300 291 281 274 271 269 269 270 271 271 270 270
Height
1482 1485 1488 1491 1494 1496 1499 1502 1505 1508 1511 1513 1515 1517 1519 1521 1524 1526 1528 1530 1532 1534 1536 1537 1539 1541 1542 1543 1544 1545 1547 1548 1549 1550 1550 1550 1550 1551 1551 1552 1553 1553 1555 1556 1557 1558 1559 1560 1562 1563 1564 1565 1566 1567 1568 1569 1570 1570 1571 1571 1571 1572 1573 1573 1574 1574 1574 1574 1575 1575 1575 1575 1575 1576 1576 1576 1575 1575 1575 1575 1575 1575 1574 1574 1574
1478 1481 1484 1487 1490 1492 1496 1499 1502 1504 1507 1509 1511 1513 1516 1518 1520 1523 1524 1526 1529 1531 1532 1534 1536 1537 1538 1540 1541 1542 1543 1545 1546 1547 1547 1547 1547 1548 1548 1549 1550 1551 1552 1553 1554 1556 1558 1559 1560 1561 1562 1564 1564 1565 1566 1567 1568 1568 1569 1569 1570 1570 1571 1571 1572 1572 1572 1573 1573 1573 1573 1573 1574 1574 1574 1574 1574 1573 1573 1573 1573 1573 1572 1572 1572
1474 1477 1481 1483 1486 1489 1492 1495 1498 1500 1502 1504 1507 1509 1512 1515 1517 1519 1521 1523 1525 1527 1529 1530 1532 1533 1534 1536 1537 1538 1539 1541 1542 1543 1544 1544 1544 1545 1546 1546 1547 1548 1550 1551 1553 1554 1556 1557 1559 1560 1561 1562 1563 1564 1565 1565 1566 1566 1567 1568 1568 1569 1569 1569 1569 1569 1570 1571 1571 1571 1572 1572 1572 1572 1572 1572 1572 1571 1571 1571 1571 1571 1570 1570 1570
1470 1474 1477 1479 1482 1485 1488 1491 1493 1495 1498 1500 1502 1506 1509 1512 1513 1515 1517 1519 1521 1523 1525 1527 1528 1529 1530 1531 1533 1534 1535 1536 1538 1539 1540 1540 1541 1542 1543 1543 1544 1545 1547 1549 1550 1552 1553 1555 1557 1558 1559 1559 1561 1561 1562 1563 1564 1565 1565 1566 1566 1567 1567 1567 1567 1568 1568 1568 1569 1570 1570 1570 1571 1571 1570 1570 1570 1570 1570 1570 1569 1569 1568 1568 1567
1466 1469 1472 1475 1478 1481 1483 1486 1488 1490 1493 1496 1499 1502 1505 1508 1509 1511 1513 1515 1517 1519 1521 1522 1523 1524 1525 1527 1528 1529 1531 1532 1533 1534 1536 1536 1538 1539 1540 1540 1541 1543 1544 1546 1548 1549 1551 1552 1554 1555 1556 1557 1558 1559 1560 1561 1562 1563 1564 1564 1565 1565 1565 1565 1565 1566 1566 1567 1568 1569 1569 1569 1569 1569 1569 1569 1569 1569 1568 1568 1567 1566 1566 1565 1565
1462 1465 1468 1471 1473 1476 1479 1481 1483 1485 1488 1491 1495 1498 1501 1503 1505 1507 1509 1511 1513 1514 1516 1517 1518 1519 1520 1522 1524 1525 1527 1528 1529 1530 1531 1533 1534 1535 1536 1537 1538 1540 1541 1543 1545 1546 1548 1550 1551 1553 1554 1555 1556 1557 1558 1559 1560 1561 1562 1563 1564 1564 1563 1563 1563 1564 1564 1565 1566 1567 1567 1568 1568 1568 1568 1568 1567 1567 1567 1566 1565 1565 1564 1563 1563
1457 1460 1463 1466 1469 1471 1473 1475 1478 1481 1484 1487 1491 1494 1496 1498 1500 1502 1505 1506 1508 1509 1510 1512 1514 1515 1516 1518 1519 1521 1522 1523 1525 1526 1527 1528 1530 1531 1532 1534 1535 1537 1539 1541 1542 1544 1545 1547 1548 1550 1552 1553 1555 1556 1557 1557 1558 1559 1560 1561 1562 1562 1561 1561 1561 1562 1562 1563 1564 1565 1565 1566 1566 1566 1566 1566 1565 1565 1565 1563 1562 1562 1562 1560 1560
1453 1456 1459 1461 1463 1465 1467 1470 1473 1477 1480 1483 1486 1488 1491 1493 1495 1498 1500 1501 1503 1504 1505 1507 1509 1511 1512 1513 1515 1516 1518 1518 1520 1521 1523 1524 1525 1527 1528 1530 1532 1534 1536 1538 1540 1541 1543 1544 1546 1548 1551 1553 1554 1555 1556 1556 1557 1557 1558 1559 1560 1560 1560 1560 1560 1560 1560 1561 1561 1562 1563 1563 1563 1564 1564 1564 1563 1563 1562 1561 1559 1559 1559 1558 1557
1448 1451 1454 1455 1457 1459 1463 1466 1469 1473 1476 1478 1481 1483 1486 1489 1491 1493 1495 1496 1498 1499 1501 1503 1504 1506 1507 1508 1510 1512 1512 1513 1514 1516 1518 1519 1521 1522 1524 1527 1529 1531 1534 1536 1538 1539 1541 1543 1545 1548 1552 1554 1555 1556 1556 1556 1556 1556 1556 1557 1557 1557 1557 1558 1558 1558 1558 1558 1559 1559 1560 1560 1560 1561 1561 1561 1561 1560 1560 1559 1557 1557 1556 1555 1555
1443 1446 1447 1449 1451 1456 1459 1462 1465 1468 1471 1473 1476 1479 1481 1484 1486 1488 1489 1491 1492 1494 1496 1498 1499 1500 1502 1504 1505 1506 1506 1507 1509 1511 1513 1515 1517 1518 1520 1523 1526 1528 1531 1534 1536 1538 1541 1544 1546 1550 1555 1557 1557 1556 1556 1555 1554 1554 1555 1555 1555 1555 1555 1556 1555 1555 1556 1556 1556 1557 1557 1557 1558 1558 1558 1558 1559 1558 1558 1557 1556 1555 1554 1553 1552
1438 1440 1442 1443 1448 1452 1455 1458 1460 1463 1465 1468 1471 1474 1477 1479 1481 1482 1484 1486 1487 1489 1491 1492 1493 1495 1497 1499 1500 1501 1501 1503 1505 1507 1509 1510 1512 1514 1516 1520 1523 1526 1529 1531 1535 1538 1542 1544 1547 1551 1555 1556 1554 1553 1553 1552 1552 1552 1552 1553 1553 1553 1553 1554 1553 1553 1553 1553 1553 1554 1554 1555 1556 1557 1557 1557 1557 1556 1556 1555 1554 1553 1552 1551 1550
1433 1435 1437 1440 1444 1447 1450 1453 1455 1458 1460 1463 1466 1469 1472 1474 1475 1477 1478 1480 1482 1484 1485 1486 1488 1490 1492 1494 1495 1495 1496 1498 1500 1502 1504 1506 1508 1510 1513 1516 1519 1522 1526 1530 1534 1537 1540 1543 1544 1546 1548 1547 1547 1546 1545 1546 1547 1548 1549 1550 1550 1550 1551 1551 1551 1551 1551 1551 1551 1552 1553 1553 1554 1555 1555 1554 1554 1554 1553 1552 1551 1551 1550 1549 1548
1428 1430 1433 1437 1439 1442 1445 1448 1450 1453 1455 1458 1461 1464 1466 1468 1469 1471 1472 1475 1477 1479 1480 1481 1483 1485 1486 1488 1489 1490 1492 1494 1496 1497 1499 1501 1504 1507 1509 1512 1515 1519 1524 1527 1530 1531 1533 1535 1535 1536 1537 1536 1536 1537 1538 1539 1542 1544 1545 1546 1546 1547 1547 1548 1548 1548 1548 1548 1549 1550 1551 1551 1551 1552 1552 1552 1552 1552 1551 1550 1549 1548 1548 1547 1546
1423 1426 1428 1432 1434 1437 1441 1442 1444 1447 1450 1454 1457 1459 1461 1462 1464 1466 1468 1470 1472 1473 1474 1476 1478 1479 1480 1482 1483 1485 1487 1489 1491 1493 1495 1497 1500 1504 1506 1509 1512 1516 1519 1520 1521 1523 1524 1524 1525 1527 1529 1529 1530 1531 1532 1534 1536 1539 1540 1541 1542 1543 1543 1544 1545 1545 1545 1546 1546 1547 1547 1548 1548 1549 1549 1549 1549 1548 1548 1548 1547 1546 1545 1544 1543
1420 1422 1425 1427 1430 1433 1435 1437 1439 1442 1445 1449 1452 1453 1455 1457 1460 1462 1464 1465 1467 1468 1470 1472 1472 1473 1475 1476 1478 1480 1482 1484 1486 1488 1491 1494 1497 1500 1503 1505 1509 1511 1512 1513 1514 1517 1518 1519 1519 1520 1522 1523 1525 1527 1529 1530 1532 1534 1536 1537 1538 1539 1540 1541 1542 1542 1543 1543 1543 1543 1543 1544 1546 1546 1546 1546 1546 1545 1545 1545 1545 1544 1543 1542 1541
1416 1419 1421 1423 1426 1428 1430 1433 1435 1438 1441 1444 1446 1448 1450 1452 1455 1458 1460 1462 1463 1464 1466 1467 1467 1468 1470 1472 1474 1475 1477 1480 1482 1484 1487 1490 1493 1496 1498 1501 1504 1506 1506 1507 1509 1512 1514 1515 1515 1515 1516 1519 1521 1523 1525 1526 1527 1529 1531 1533 1534 1535 1536 1538 1538 1539 1539 1540 1540 1540 1541 1542 1542 1543 1543 1543 1542 1542 1541 1542 1542 1542 1541 1539 1538
1412 1415 1417 1419 1421 1424 1427 1429 1432 1434 1437 1439 1441 1443 1445 1447 1450 1453 1455 1457 1458 1459 1461 1462 1463 1465 1466 1468 1469 1470 1472 1475 1477 1480 1483 1486 1488 1491 1493 1496 1499 1501 1501 1502 1504 1507 1508 1509 1511 1512 1513 1515 1517 1519 1521 1522 1523 1524 1526 1528 1530 1531 1533 1534 1535 1535 1536 1536 1537 1537 1538 1538 1539 1539 1540 1540 1539 1539 1539 1539 1539 1538 1537 1536 1535
1408 1410 1412 1414 1417 1420 1423 1426 1428 1430 1432 1433 1435 1437 1440 1442 1445 1447 1449 1451 1452 1454 1456 1458 1460 1461 1462 1463 1464 1466 1468 1471 1473 1476 1479 1481 1484 1486 1489 1492 1494 1496 1497 1498 1499 1502 1503 1505 1506 1507 1508 1511 1513 1515 1517 1518 1518 1519 1522 1524 1525 1527 1529 1530 1531 1532 1533 1533 1534 1534 1534 1535 1535 1536 1536 1537 1537 1536 1536 1536 1535 1535 1534 1533 1532
1403 1405 1407 1410 1413 1416 1419 1422 1424 1426 1427 1428 1430 1432 1435 1437 1440 1442 1444 1445 1446 1449 1451 1453 1455 1456 1457 1459 1461 1463 1465 1467 1469 1471 1474 1476 1479 1482 1485 1487 1488 1491 1493 1494 1495 1496 1498 1500 1502 1503 1505 1507 1509 1510 1512 1514 1514 1515 1518 1520 1521 1522 1525 1526 1528 1529 1530 1530 1531 1531 1531 1532 1532 1532 1533 1534 1534 1534 1533 1533 1532 1532 1531 1531 1530
1400 1403 1405 1408 1411 1413 1415 1418 1420 1421 1422 1423 1425 1428 1430 1433 1435 1436 1437 1438 1440 1442 1444 1446 1448 1450 1452 1455 1457 1459 1460 1462 1464 1466 1469 1472 1475 1477 1480 1482 1483 1486 1489 1491 1491 1492 1493 1495 1497 1499 1501 1503 1504 1506 1508 1510 1511 1512 1514 1516 1517 1519 1521 1523 1525 1526 1526 1527 1528 1528 1528 1529 1529 1529 1530 1531 1531 1531 1531 1530 1529 1529 1529 1529 1528
1398 1401 1403 1405 1408 1409 1411 1413 1415 1417 1418 1419 1421 1422 1424 1426 1428 1429 1431 1432 1434 1435 1437 1439 1441 1444 1447 1449 1451 1453 1455 1457 1459 1461 1464 1467 1470 1473 1475 1477 1479 1482 1485 1487 1488 1489 1490 1492 1494 1495 1497 1498 1500 1502 1504 1506 1508 1509 1510 1512 1514 1516 1518 1520 1521 1522 1523 1524 1525 1525 1525 1526 1526 1527 1528 1528 1528 1528 1528 1527 1526 1526 1527 1527 1526
1397 1399 1401 1402 1403 1405 1407 1408 1410 1411 1414 1416 1417 1417 1418 1420 1422 1424 1425 1427 1428 1430 1432 1434 1437 1439 1441 1444 1445 1447 1450 1452 1454 1457 1459 1462 1465 1468 1471 1473 1476 1478 1480 1482 1483 1485 1487 1489 1491 1492 1493 1495 1497 1498 1500 1503 1504 1505 1507 1509 1511 1513 1515 1517 1517 1518 1519 1520 1521 1522 1523 1523 1524 1524 1525 1525 1526 1525 1525 1524 1524 1523 1524 1524 1524
1396 1398 1399 1400 1401 1402 1403 1404 1406 1407 1410 1411 1412 1412 1412 1414 1415 1417 1420 1421 1423 1426 1428 1430 1433 1434 1436 1438 1439 1441 1444 1446 1448 1451 1454 1457 1460 1464 1467 1470 1472 1474 1476 1477 1479 1481 1483 1485 1486 1488 1490 1492 1493 1494 1496 1498 1500 1502 1504 1506 1508 1510 1512 1513 1514 1515 1516 1517 1517 1518 1519 1521 1521 1522 1522 1523 1523 1522 1522 1522 1521 1521 1521 1522 1522
1392 1394 1395 1396 1398 1398 1399 1401 1403 1404 1406 1408 1409 1409 1409 1409 1410 1411 1414 1417 1419 1421 1423 1425 1427 1428 1429 1430 1432 1434 1437 1440 1442 1445 1448 1452 1456 1460 1463 1466 1468 1470 1472 1473 1475 1476 1479 1481 1483 1484 1486 1487 1489 1491 1493 1495 1496 1499 1501 1503 1505 1507 1508 1509 1510 1512 1512 1513 1514 1515 1516 1518 1518 1519 1519 1520 1520 1520 1519 1519 1519 1519 1519 1520 1519
1389 1390 1391 1393 1394 1395 1396 1397 1398 1399 1401 1402 1403 1404 1405 1406 1407 1409 1411 1414 1415 1416 1417 1418 1419 1420 1422 1423 1424 1426 1429 1432 1435 1439 1443 1447 1451 1455 1459 1462 1464 1466 1467 1469 1471 1473 1475 1477 1479 1480 1482 1484 1485 1487 1489 1491 1493 1495 1498 1500 1502 1503 1505 1506 1507 1508 1509 1510 1511 1512 1513 1515 1516 1517 1517 1517 1517 1517 1517 1517 1517 1517 1518 1518 1517
1386 1387 1389 1390 1392 1393 1394 1395 1395 1396 1397 1398 1399 1399 1402 1404 1406 1407 1408 1409 1409 1409 1410 1411 1412 1413 1415 1416 1418 1420 1424 1426 1429 1433 1437 1442 1446 1451 1455 1458 1459 1461 1463 1465 1468 1470 1473 1474 1475 1477 1479 1481 1482 1484 1486 1488 1490 1492 1495 1497 1499 1500 1502 1503 1504 1505 1506 1507 1508 1510 1511 1512 1514 1515 1515 1515 1515 1515 1515 1516 1516 1516 1516 1516 1515
1384 1385 1386 1388 1389 1390 1391 1392 1393 1394 1395 1396 1397 1397 1399 1400 1400 1400 1401 1401 1401 1402 1403 1404 1405 1405 1406 1409 1412 1415 1419 1422 1425 1428 1431 1436 1441 1446 1450 1453 1455 1457 1459 1462 1465 1467 1469 1472 1473 1475 1477 1479 1480 1481 1483 1485 1487 1489 1492 1494 1496 1498 1499 1500 1501 1502 1503 1504 1506 1507 1509 1510 1511 1512 1513 1513 1514 1514 1514 1514 1514 1514 1514 1513 1513
1383 1384 1385 1386 1387 1388 1389 1390 1391 1392 1393 1394 1394 1394 1394 1394 1393 1392 1391 1391 1391 1393 1394 1395 1396 1397 1399 1402 1405 1408 1413 1417 1420 1423 1427 1431 1436 1441 1445 1447 1450 1453 1456 1459 1462 1465 1467 1469 1471 1473 1475 1476 1477 1478 1480 1482 1484 1486 1489 1491 1493 1495 1497 1498 1499 1500 1501 1502 1503 1505 1506 1507 1508 1510 1510 1511 1512 1512 1512 1512 1512 1512 1512 1511 1510
1381 1382 1383 1384 1385 1386 1387 1388 1388 1389 1390 1390 1390 1390 1389 1388 1386 1384 1383 1384 1384 1384 1385 1387 1390 1392 1395 1398 1399 1400 1403 1406 1410 1416 1423 1428 1432 1436 1440 1444 1447 1451 1455 1458 1461 1463 1465 1467 1469 1471 1472 1473 1475 1476 1477 1480 1481 1483 1486 1488 1490 1492 1494 1495 1496 1497 1498 1499 1501 1502 1504 1505 1506 1507 1508 1509 1509 1509 1509 1509 1509 1509 1509 1508 1508
1379 1379 1380 1381 1382 1383 1384 1385 1385 1386 1386 1386 1386 1385 1384 1384 1383 1381 1380 1381 1382 1383 1383 1385 1387 1390 1392 1393 1394 1395 1397 1400 1405 1411 1419 1425 1429 1432 1436 1440 1444 1448 1453 1457 1459 1461 1462 1464 1466 1468 1470 1471 1472 1474 1475 1477 1479 1481 1483 1485 1487 1489 1491 1492 1493 1495 1496 1497 1498 1500 1501 1503 1504 1504 1505 1506 1507 1507 1507 1507 1507 1506 1506 1505 1505
1377 1377 1377 1378 1378 1379 1380 1381 1381 1382 1382 1382 1382 1381 1380 1379 1379 1378 1378 1379 1380 1381 1381 1382 1384 1387 1388 1388 1391 1394 1399 1403 1406 1408 1413 1420 1425 1428 1430 1434 1438 1442 1447 1453 1456 1457 1459 1460 1462 1465 1468 1469 1470 1472 1473 1475 1477 1479 1481 1483 1485 1486 1488 1489 1491 1493 1494 1495 1496 1497 1499 1500 1501 1502 1503 1504 1504 1505 1505 1504 1504 1503 1503 1503 1502
1376 1376 1376 1377 1377 1377 1378 1378 1379 1379 1379 1378 1378 1377 1375 1373 1372 1372 1373 1373 1373 1373 1374 1375 1377 1379 1379 1383 1389 1393 1398 1402 1405 1406 1410 1416 1421 1424 1426 1428 1431 1436 1443 1449 1453 1454 1455 1457 1459 1462 1465 1467 1468 1470 1471 1473 1475 1477 1479 1481 1483 1484 1486 1488 1489 1490 1491 1492 1494 1495 1496 1497 1499 1499 1500 1501 1502 1502 1502 1502 1501 1501 1500 1500 1500
1376 1376 1377 1377 1377 1378 1378 1377 1377 1377 1376 1376 1375 1374 1372 1369 1367 1366 1366 1366 1365 1365 1364 1364 1365 1368 1371 1378 1386 1392 1395 1399 1401 1403 1407 1413 1418 1423 1425 1426 1428 1433 1439 1445 1449 1450 1452 1454 1456 1459 1462 1464 1466 1468 1470 1471 1473 1475 1477 1479 1481 1483 1485 1486 1487 1488 1489 1490 1491 1492 1494 1495 1496 1497 1498 1499 1499 1500 1500 1499 1499 1498 1498 1498 1497
1377 1377 1378 1378 1379 1378 1378 1378 1377 1376 1375 1375 1374 1372 1370 1368 1365 1362 1360 1359 1360 1360 1358 1353 1351 1356 1367 1375 1383 1391 1394 1396 1399 1402 1405 1408 1413 1419 1424 1425 1427 1432 1438 1442 1445 1447 1448 1451 1454 1456 1459 1462 1464 1466 1468 1469 1471 1473 1475 1478 1480 1481 1483 1484 1485 1486 1487 1488 1489 1490 1491 1493 1494 1495 1496 1497 1497 1497 1497 1497 1496 1496 1496 1495 1495
1379 1379 1379 1380 1380 1379 1379 1379 1378 1377 1376 1375 1374 1373 1370 1368 1365 1360 1352 1348 1344 1339 1340 1343 1344 1351 1363 1371 1379 1388 1395 1397 1400 1404 1406 1407 1407 1410 1416 1423 1427 1432 1437 1441 1442 1443 1446 1448 1451 1454 1456 1459 1462 1464 1465 1467 1468 1471 1473 1476 1478 1479 1480 1482 1483 1484 1485 1486 1487 1488 1489 1491 1492 1493 1494 1494 1495 1495 1495 1494 1494 1494 1493 1493 1492
1383 1382 1382 1382 1382 1381 1381 1380 1379 1377 1377 1375 1373 1373 1370 1368 1367 1359 1349 1346 1339 1319 1309 1319 1333 1344 1357 1368 1376 1388 1397 1401 1404 1407 1409 1409 1406 1404 1409 1420 1427 1431 1435 1437 1438 1440 1443 1446 1449 1452 1454 1457 1459 1461 1463 1464 1467 1470 1472 1474 1476 1478 1479 1480 1481 1482 1483 1483 1484 1486 1487 1488 1490 1490 1491 1492 1492 1492 1492 1491 1491 1491 1491 1490 1490
1385 1385 1384 1384 1384 1383 1382 1382 1379 1378 1378 1375 1373 1373 1370 1368 1369 1361 1350 1352 1351 1329 1308 1315 1333 1346 1355 1365 1375 1387 1398 1404 1407 1409 1408 1408 1407 1404 1408 1418 1427 1431 1433 1435 1435 1438 1441 1444 1447 1450 1452 1455 1457 1459 1461 1463 1466 1469 1471 1473 1474 1475 1476 1478 1479 1480 1480 1481 1482 1483 1485 1486 1487 1488 1489 1490 1490 1489 1489 1489 1489 1489 1489 1488 1487
1387 1387 1386 1386 1386 1385 1384 1383 1381 1379 1378 1376 1373 1373 1370 1367 1369 1367 1359 1358 1361 1352 1339 1341 1352 1358 1361 1366 1375 1389 1400 1404 1406 1406 1405 1404 1405 1406 1411 1420 1426 1429 1431 1433 1434 1437 1440 1442 1446 1448 1451 1453 1455 1457 1459 1462 1465 1467 1469 1471 1472 1473 1474 1476 1477 1477 1477 1478 1480 1481 1483 1484 1485 1486 1487 1487 1487 1486 1486 1486 1487 1487 1487 1486 1484
1388 1389 1388 1388 1388 1387 1385 1385 1382 1380 1379 1377 1374 1373 1372 1369 1368 1369 1368 1367 1368 1367 1363 1362 1364 1367 1372 1377 1385 1395 1402 1402 1401 1401 1402 1403 1406 1410 1416 1421 1424 1426 1429 1431 1433 1436 1439 1441 1444 1447 1449 1452 1454 1456 1459 1461 1464 1466 1468 1469 1470 1471 1472 1473 1474 1474 1475 1476 1477 1479 1481 1482 1483 1484 1484 1484 1484 1484 1484 1484 1485 1485 1484 1483 1482
1390 1390 1390 1389 1389 1388 1387 1386 1385 1382 1380 1379 1377 1375 1374 1372 1370 1369 1368 1368 1370 1372 1374 1374 1374 1377 1383 1389 1395 1399 1401 1400 1398 1399 1401 1404 1408 1413 1418 1421 1422 1423 1426 1429 1432 1435 1438 1440 1443 1446 1448 1451 1453 1455 1458 1460 1462 1464 1466 1467 1468 1469 1470 1471 1471 1471 1472 1474 1475 1477 1479 1480 1481 1481 1482 1482 1482 1482 1482 1482 1483 1483 1482 1481 1479
1391 1391 1390 1389 1389 1388 1387 1387 1386 1384 1382 1381 1380 1378 1376 1375 1374 1372 1371 1371 1373 1375 1378 1380 1382 1384 1389 1394 1397 1398 1397 1397 1397 1399 1402 1406 1410 1414 1417 1419 1420 1421 1424 1427 1431 1434 1437 1439 1442 1444 1447 1450 1453 1455 1457 1459 1461 1463 1464 1465 1466 1467 1468 1468 1469 1469 1470 1472 1474 1475 1477 1478 1478 1479 1479 1480 1480 1480 1480 1481 1481 1481 1480 1479 1477
1392 1391 1391 1390 1389 1389 1389 1388 1386 1386 1384 1382 1381 1381 1380 1378 1377 1376 1375 1375 1377 1379 1381 1383 1385 1387 1390 1393 1395 1395 1394 1395 1398 1401 1404 1408 1411 1413 1415 1417 1418 1421 1423 1427 1430 1433 1435 1438 1441 1443 1446 1449 1451 1453 1455 1458 1460 1461 1463 1463 1464 1465 1466 1466 1466 1467 1468 1470 1472 1473 1474 1475 1476 1477 1477 1478 1478 1478 1478 1479 1479 1479 1478 1477 1475
1393 1392 1391 1391 1390 1389 1389 1389 1387 1386 1386 1384 1383 1382 1382 1381 1379 1378 1378 1378 1379 1381 1383 1384 1386 1387 1389 1391 1393 1394 1395 1397 1399 1402 1405 1407 1409 1412 1414 1416 1418 1421 1423 1426 1430 1433 1435 1438 1440 1443 1446 1448 1450 1452 1454 1456 1458 1460 1461 1462 1462 1463 1464 1464 1464 1465 1467 1468 1470 1471 1472 1473 1474 1475 1476 1476 1476 1476 1477 1477 1478 1477 1476 1475 1473
1393 1392 1391 1391 1391 1390 1390 1389 1389 1387 1386 1386 1385 1384 1384 1383 1382 1381 1380 1380 1381 1382 1384 1385 1386 1388 1389 1390 1392 1395 1397 1399 1401 1403 1405 1407 1408 1410 1413 1415 1418 1421 1423 1427 1430 1433 1435 1438 1440 1443 1445 1447 1449 1451 1453 1455 1457 1458 1459 1460 1461 1461 1462 1462 1462 1463 1465 1466 1468 1469 1470 1471 1473 1474 1474 1474 1475 1475 1475 1475 1476 1475 1474 1473 1471
1394 1394 1393 1392 1391 1391 1390 1390 1389 1389 1388 1388 1387 1387 1386 1385 1385 1384 1384 1383 1383 1384 1386 1387 1388 1389 1390 1391 1394 1396 1399 1401 1402 1403 1405 1406 1408 1409 1412 1414 1417 1420 1423 1426 1429 1432 1435 1437 1439 1441 1444 1446 1448 1450 1452 1453 1455 1456 1457 1458 1459 1459 1459 1459 1460 1461 1462 1464 1466 1467 1469 1470 1471 1472 1473 1473 1473 1473 1473 1474 1474 1473 1472 1470 1469
1394 1394 1394 1393 1392 1392 1391 1391 1390 1390 1389 1389 1390 1389 1389 1388 1388 1387 1387 1387 1387 1387 1388 1389 1390 1391 1393 1394 1396 1398 1400 1402 1403 1404 1405 1407 1408 1410 1412 1414 1417 1420 1423 1426 1429 1431 1434 1437 1439 1441 1443 1445 1446 1448 1450 1451 1453 1454 1456 1457 1457 1457 1457 1457 1457 1459 1460 1462 1464 1466 1467 1469 1470 1471 1471 1471 1471 1471 1471 1471 1471 1471 1470 1469 1467
1395 1394 1394 1393 1393 1392 1392 1391 1391 1390 1390 1391 1391 1391 1391 1391 1390 1390 1390 1389 1389 1389 1390 1390 1392 1393 1395 1397 1398 1400 1401 1403 1404 1405 1406 1408 1409 1411 1413 1416 1418 1420 1423 1426 1428 1431 1434 1436 1438 1440 1442 1443 1445 1447 1448 1450 1452 1453 1454 1455 1456 1455 1455 1455 1456 1457 1459 1461 1463 1465 1466 1468 1469 1469 1469 1469 1469 1469 1469 1469 1469 1469 1468 1467 1465
1395 1394 1394 1393 1393 1392 1391 1391 1391 1391 1390 1391 1391 1391 1391 1391 1391 1391 1391 1391 1390 1390 1391 1391 1393 1394 1396 1398 1399 1400 1402 1403 1404 1405 1407 1409 1410 1412 1415 1417 1419 1421 1423 1426 1428 1431 1433 1436 1437 1439 1441 1442 1444 1445 1447 1449 1450 1452 1453 1454 1454 1454 1454 1454 1455 1457 1459 1460 1462 1464 1465 1466 1467 1467 1467 1467 1467 1467 1467 1468 1468 1467 1467 1465 1464
1395 1395 1394 1393 1392 1392 1391 1391 1391 1390 1390 1390 1390 1390 1390 1390 1391 1391 1391 1391 1391 1391 1391 1392 1393 1394 1396 1397 1399 1400 1402 1403 1404 1406 1408 1409 1411 1413 1415 1417 1420 1422 1424 1426 1429 1431 1433 1435 1436 1438 1439 1441 1443 1444 1446 1447 1449 1451 1452 1453 1453 1453 1453 1453 1455 1456 1458 1460 1462 1464 1465 1465 1465 1465 1465 1465 1465 1465 1465 1466 1466 1466 1465 1464 1462
1396 1395 1394 1393 1392 1392 1391 1391 1391 1391 1390 1390 1390 1389 1389 1389 1389 1390 1391 1391 1391 1392 1392 1393 1394 1395 1396 1397 1399 1400 1402 1403 1405 1407 1408 1410 1412 1414 1416 1418 1420 1422 1424 1427 1429 1431 1432 1434 1435 1437 1439 1440 1442 1443 1445 1447 1448 1450 1451 1451 1452 1452 1452 1453 1454 1456 1458 1460 1462 1463 1464 1464 1464 1464 1463 1463 1463 1463 1463 1464 1464 1464 1463 1462 1461
1397 1396 1394 1393 1392 1392 1392 1392 1392 1391 1391 1390 1389 1389 1388 1388 1388 1389 1390 1390 1390 1390 1391 1393 1394 1395 1396 1398 1399 1401 1402 1404 1406 1407 1409 1411 1413 1415 1416 1418 1420 1422 1424 1427 1428 1430 1432 1433 1435 1436 1438 1439 1441 1443 1444 1446 1447 1449 1449 1450 1450 1451 1451 1452 1454 1455 1457 1459 1461 1462 1463 1463 1462 1462 1461 1461 1461 1461 1462 1462 1462 1462 1462 1461 1459